Home > Weather > Nikšić > Past weeks

Flag for Montenegro Past Weather in Nikšić, Montenegro — Yesterday and Last 2 Weeks

Now
62 °F

Sunny.


Feels Like: 62 °F
Forecast: 53 / 82 °F
Wind: No wind

Location: Niksic

Current Time: Aug 30, 2016 at 9:31:55 AM

Latest Report: Aug 30, 2016 at 8:00 AM


Visibility: 13 mi

Pressure: 30.06 "Hg (27.90 "Hg at 635m altitude)

Humidity: 84%

Dew Point: 57 °F

Location of NikšićLocation

Past Weather in Nikšić — Graph

°F

Nikšić Temperature Yesterday

Maximum temperature yesterday: 86 °F (at 2:00 PM)
Minimum temperature yesterday: 58 °F (at 7:00 AM)
Average temperature yesterday: 73 °F

High & Low Weather Summary for the Past Weeks

 TemperatureHumidityPressure
High87 °F (Aug 27, 4:00 PM)100% (Aug 23, 8:00 PM)30.17 "Hg (Aug 23, 8:00 PM)
Low56 °F (Aug 19, 6:00 AM)35% (Aug 27, 4:00 PM)29.80 "Hg (Aug 19, 2:00 PM)
Average71 °F64%29.99 "Hg
* Reported Aug 15 8:00 AM — Aug 30 8:00 AM, Nikšić, Weather by CustomWeather, © 2016

Note: Actual official high and low records may vary slightly from our data, if they occured in-between our weather recording intervals... More about our weather records

Advertising

Nikšić Weather History for the Previous 24 Hours

Scroll right to see more
 ConditionsComfort  
Time TempWeatherWind HumidityBarometerVisibility
8:00 AM
Tue, Aug 30
62 °FSunny.No wind84%30.06 "Hg12 mi
7:00 AM59 °FSunny.2 mph89%30.07 "Hg12 mi
6:00 AM58 °FClear.1 mph89%30.06 "Hg12 mi
5:00 AM59 °FClear.1 mph89%30.06 "Hg12 mi
2:00 AM63 °FClear.2 mph83%30.04 "Hg12 mi
11:00 PM
Mon, Aug 29
68 °FClear.2 mph74%30.02 "Hg12 mi
10:00 PM72 °FClear.2 mph68%29.99 "Hg12 mi
9:00 PM73 °FPassing clouds.2 mph55%29.95 "Hg12 mi
8:00 PM76 °FPassing clouds.2 mph56%29.93 "Hg12 mi
7:00 PM78 °FScattered clouds.3 mph54%29.91 "Hg12 mi
6:00 PM80 °FScattered clouds.3 mph50%29.90 "Hg12 mi
5:00 PM83 °FScattered clouds.5 mph49%29.89 "Hg12 mi
4:00 PM85 °FPassing clouds.5 mph45%29.88 "Hg12 mi
3:00 PM86 °FPassing clouds.6 mph42%29.89 "Hg12 mi
2:00 PM86 °FPassing clouds.2 mph40%29.90 "Hg12 mi
1:00 PM85 °FPassing clouds.2 mph48%29.93 "Hg12 mi
12:00 PM82 °FPassing clouds.2 mph48%29.95 "Hg12 mi
11:00 AM79 °FPassing clouds.2 mph52%30.01 "Hg12 mi
10:00 AM72 °FSunny.No wind62%30.01 "Hg12 mi
9:00 AM67 °FSunny.1 mph70%30.04 "Hg12 mi
Weather by CustomWeather, © 2016

See weather overviewHow to use our weather pages